Location: *
(46.7973°N, 23.2545°E)
Time: 10:19:53
(UTC+00:00)

Daily predictions for brighter satellites

Satellite Brightness Start Highest point End
(mag) Time Altitude Azimuth Time Altitude Azimuth Time Altitude Azimuth
STARLINK-1096 3.8 17:14:55 10° WNW 17:18:52 58° NNE 17:22:50 10° ESE
STARLINK-1243 4.2 17:16:26 10° SSW 17:20:09 37° SE 17:23:53 10° ENE
Cosmos 1626 3.3 17:17:53 10° NNE 17:20:58 24° ENE 17:24:02 10° SE
Okean 1-7 Rocket 3.8 17:17:15 10° N 17:21:32 48° ENE 17:25:46 10° SSE
STARLINK-1234 2.7 17:19:41 10° SW 17:22:40 71° SE 17:25:39 10° ENE
USA 186 2.9 17:19:44 10° SE 17:22:45 29° ENE 17:25:44 10° N
STARLINK-1079 3.8 17:19:23 10° WNW 17:23:21 61° NNE 17:27:19 10° ESE
STARLINK-1236 4.1 17:21:00 10° SSW 17:24:47 40° SE 17:28:35 10° ENE
Cosmos 1242 Rocket 4.1 17:22:04 10° NNW 17:25:20 39° W 17:28:36 10° SSW
H-2A R/B 2.4 17:20:54 10° SE 17:25:59 48° ENE 17:30:57 10° N
SJ-11-01 4.3 17:22:12 10° SSE 17:26:50 62° ENE 17:31:30 10° N
STARLINK-1116 3.7 17:23:50 10° WNW 17:27:50 65° NNE 17:31:49 10° ESE
Cosmos 1745 Rocket 4.0 17:22:05 10° N 17:28:26 74° E 17:34:39 10° SSE
USA 234 3.8 17:23:23 10° ENE 17:29:26 38° SE 17:35:26 10° SSW
NOSS 0 Rocket 4.1 17:24:18 10° SSW 17:30:31 81° WNW 17:36:46 10° NNE
Cosmos 2297 4.0 17:27:04 10° NNW 17:32:36 49° ENE 17:38:06 10° SE
Okean 1 Rocket 4.2 17:29:11 10° SSW 17:33:25 48° WNW 17:37:40 10° N
STARLINK-1269 3.9 17:30:16 10° SW 17:34:08 46° SE 17:38:01 10° ENE
ADEOS Rocket 3.5 17:27:27 10° NNE 17:34:21 74° WNW 17:40:30 10° SSW
Cosmos 1544 Rocket 4.1 17:31:10 10° SSE 17:35:13 38° E 17:39:19 10° NNE
Meteor 2-5 Rocket 3.8 17:30:17 10° N 17:36:00 89° E 17:41:35 10° S
STARLINK-1094 3.6 17:32:47 10° WNW 17:36:49 72° NNE 17:40:31 12° ESE
ERBS 3.5 17:35:22 10° WSW 17:38:36 42° NNW 17:41:52 10° NE
Cosmos 2237 Rocket 2.3 17:33:09 10° SSW 17:38:47 85° WNW 17:44:28 10° NNE
STARLINK-1200 3.8 17:34:54 10° SW 17:38:48 50° SE 17:42:44 10° ENE
STARLINK-1118 3.7 17:38:00 10° WNW 17:39:58 28° SW 17:41:56 10° SSE
HJ-1C 3.8 17:37:44 10° S 17:41:03 67° WSW 17:44:25 10° NNW
STARLINK-1117 3.6 17:37:17 10° WNW 17:41:19 76° NNE 17:44:51 13° ESE
STARLINK-1192 3.7 17:39:29 10° SW 17:43:25 54° SE 17:47:23 10° ENE
Cosmos 1302 Rocket 4.4 17:39:09 10° NNW 17:44:15 46° ENE 17:49:19 10° SE
Cosmos 2278 Rocket 3.3 17:39:29 10° NW 17:44:53 46° WSW 17:50:16 10° S
Cosmos 1805 3.5 17:41:44 10° SSW 17:45:39 76° W 17:49:34 10° N
STARLINK-1078 3.5 17:41:47 10° WNW 17:45:48 81° NNE 17:49:10 14° ESE
CZ-2C R/B 3.8 17:42:43 10° NE 17:46:32 20° E 17:50:18 10° SE
Cosmos 1553 Rocket 4.3 17:41:09 10° SSW 17:47:11 69° W 17:53:17 10° N
Cosmos 1269 Rocket 4.1 17:42:33 10° S 17:47:41 55° ESE 17:52:52 10° NNE
STARLINK-1244 3.6 17:44:14 10° SW 17:48:12 59° SE 17:52:12 10° ENE
STARLINK-1108 3.5 17:46:18 10° WNW 17:50:20 85° NNE 17:53:31 16° ESE
STARLINK-1201 2.9 17:48:15 10° WSW 17:51:31 88° NNW 17:54:49 10° ENE
Meteor 1-24 Rocket 3.6 17:46:03 10° N 17:51:39 89° E 17:57:01 10° S
STARLINK-1112 4.5 17:48:35 10° WNW 17:52:32 41° NNE 17:55:48 14° E
STARLINK-1138 3.6 17:48:53 10° SW 17:52:53 63° SE 17:56:54 10° ENE
ARGOS 3.2 17:47:49 10° SSE 17:53:11 69° ENE 17:58:33 10° N
SeaSat 1 4.4 17:49:48 10° NNE 17:54:10 32° NW 17:58:31 10° WSW
STARLINK-1071 3.5 17:50:48 10° WNW 17:54:50 90° W 17:57:51 17° ESE
STARLINK-1124 3.6 17:51:17 10° WNW 17:55:28 89° SSW 17:58:34 17° ESE
SL-8 R/B 3.8 17:51:09 10° W 17:55:56 73° N 18:00:04 14° E
MOS 1 4.3 17:50:40 10° SSE 17:56:17 79° ENE 18:01:58 10° NNW
STARLINK-1128 4.4 17:53:35 10° WNW 17:57:33 42° NNE 18:00:36 16° E
STARLINK-1143 3.5 17:53:37 10° SW 17:57:38 68° SSE 18:01:41 10° ENE
STARLINK-1066 3.4 17:54:52 10° WNW 17:57:58 55° SW 18:00:08 18° SE
STARLINK-1209 3.3 17:55:26 10° WSW 17:58:17 56° NNW 18:01:00 11° NE
STARLINK-1081 3.3 17:55:20 10° WNW 17:58:24 54° SW 18:00:31 18° SE
CZ-4 R/B 4.4 17:55:58 10° SW 17:58:26 16° W 18:00:54 10° NW
STARLINK-1070 3.4 17:55:47 10° WNW 17:58:51 53° SW 18:00:56 18° SE
STARLINK-1228 3.3 17:56:17 10° WSW 17:59:07 55° NNW 18:01:47 11° NE
STARLINK-1069 3.4 17:56:11 10° WNW 17:59:17 53° SW 18:01:24 18° SE
STARLINK-1110 3.5 17:55:19 10° WNW 17:59:21 85° SSW 18:02:11 19° ESE
STARLINK-1085 3.4 17:56:38 10° WNW 17:59:44 53° SW 18:01:50 18° SE
STARLINK-1086 3.4 17:57:09 10° WNW 18:00:12 52° SW 18:02:15 18° SE
Cosmos 2315 Rocket 4.1 17:54:21 10° S 18:00:30 58° E 18:06:44 10° NNE
STARLINK-1095 3.4 17:57:36 10° WNW 18:00:39 52° SW 18:02:40 18° SE
STARLINK-1077 3.4 17:58:02 10° WNW 18:01:05 51° SW 18:03:06 19° SE
STARLINK-1075 3.4 17:58:30 10° WNW 18:01:33 51° SW 18:03:32 19° SE
STARLINK-1093 3.5 17:58:55 10° WNW 18:01:59 51° SW 18:04:01 19° SE
STARLINK-1074 3.5 17:59:21 10° WNW 18:02:26 50° SW 18:04:26 19° SE
STARLINK-1113 4.4 17:58:34 10° WNW 18:02:33 44° NNE 18:05:23 18° E
STARLINK-1087 3.5 17:59:51 10° WNW 18:02:54 49° SW 18:04:50 19° SSE
STARLINK-1088 3.5 18:00:18 10° WNW 18:03:20 49° SW 18:05:16 19° SSE
STARLINK-1115 3.5 18:00:43 10° WNW 18:03:47 49° SW 18:05:45 19° SSE
STARLINK-1076 3.6 18:01:10 10° WNW 18:04:14 48° SW 18:06:10 19° SSE
STARLINK-1092 3.6 18:01:38 10° WNW 18:04:41 48° SW 18:06:37 20° SSE
STARLINK-1080 3.6 18:02:07 10° WNW 18:05:08 47° SW 18:07:00 20° SSE
STARLINK-1090 3.6 18:02:33 10° WNW 18:05:35 47° SW 18:07:26 20° SSE
Cosmos 1470 2.9 18:02:07 10° SSE 18:05:49 47° E 18:09:35 10° NNE
STARLINK-1089 3.6 18:03:01 10° WNW 18:06:02 46° SW 18:07:52 20° SSE
MetOp-A 4.4 18:01:07 11° SE 18:06:09 51° ENE 18:11:20 10° N
STARLINK-1107 3.6 18:03:28 10° WNW 18:06:29 46° SW 18:08:18 20° SSE
STARLINK-1119 4.3 18:03:32 10° WNW 18:07:33 45° NNE 18:10:09 20° E
SL-08 RB Rocket 3.7 18:03:12 10° SSE 18:07:40 66° ENE 18:12:13 10° N
STARLINK-1241 3.4 18:04:11 10° SW 18:08:12 80° SSE 18:11:48 13° ENE
STARLINK-1122 3.6 18:04:28 10° WNW 18:08:29 75° SSW 18:10:59 22° SE
Resurs 1-3 4.0 18:07:20 17° SE 18:10:20 44° ENE 18:14:31 10° N
SJ-6B 2.8 18:07:10 10° SSE 18:11:14 87° ENE 18:15:23 10° NNW
STARLINK-1233 3.3 18:08:37 10° WSW 18:11:44 60° NNW 18:14:11 15° NE
STARLINK-1212 3.3 18:09:05 10° WSW 18:12:11 60° NNW 18:14:36 15° NE
CZ-2C R/B 3.1 18:07:13 10° S 18:12:18 79° WSW 18:17:12 10° NNW
STARLINK-1114 4.2 18:08:32 10° WNW 18:12:34 47° NNE 18:14:57 22° E
STARLINK-1105 3.4 18:09:32 10° WSW 18:12:38 59° NNW 18:15:03 15° NE
STARLINK-1239 3.4 18:08:45 10° WSW 18:12:46 85° SSE 18:16:12 14° ENE
Cosmos 2369 Rocket 3.0 18:07:46 10° NNW 18:13:01 35° NE 18:16:01 21° ESE
STARLINK-1126 3.7 18:09:05 10° WNW 18:13:06 70° SSW 18:15:25 24° SE
STARLINK-1206 3.4 18:10:01 10° WSW 18:13:06 59° NNW 18:15:27 16° NE
Cosmos 1758 3.4 18:09:20 10° S 18:13:19 54° E 18:17:19 10° NNE
ISS -2.8 18:10:17 10° WNW 18:13:29 39° N 18:15:13 22° ENE
Cosmos 304 Rocket 4.5 18:08:49 10° NNW 18:13:29 54° WSW 18:18:07 10° S
STARLINK-1247 3.4 18:10:28 10° WSW 18:13:33 58° NNW 18:15:53 16° NE
STARLINK-1227 3.4 18:10:53 10° WSW 18:13:59 58° NNW 18:16:20 16° NE
STARLINK-1218 3.4 18:11:23 10° WSW 18:14:27 58° NNW 18:16:45 16° NE
STARLINK-1226 3.4 18:11:50 10° WSW 18:14:55 57° NNW 18:17:13 16° NE
STARLINK-1254 3.4 18:12:14 10° WSW 18:15:20 57° NNW 18:17:38 16° NE
STARLINK-1215 3.4 18:12:44 10° WSW 18:15:49 56° NNW 18:18:04 17° NE
STARLINK-1231 3.4 18:13:10 10° WSW 18:16:15 56° NNW 18:18:28 17° NE
STARLINK-1232 3.5 18:14:06 10° WSW 18:17:10 55° NNW 18:19:21 17° NE
Meteor 2-15 Rocket 4.5 18:11:25 10° SSE 18:17:19 55° E 18:23:13 10° NNE
STARLINK-1240 3.5 18:13:21 10° WSW 18:17:22 90° SE 18:20:37 15° ENE
STARLINK-1130 (DARKSAT) 4.2 18:13:30 10° WNW 18:17:33 49° NNE 18:19:43 24° E
Resurs 01 Rocket 2.2 18:15:31 24° ESE 18:17:33 38° ENE 18:21:39 10° N
Meteor 1-22 Rocket 4.5 18:12:19 10° SSW 18:17:36 67° WNW 18:22:53 10° N
STARLINK-1217 3.5 18:14:33 10° WSW 18:17:37 55° NNW 18:19:48 17° NE
STARLINK-1082 3.7 18:13:39 10° WNW 18:17:39 65° SSW 18:19:48 26° SE
STARLINK-1208 3.5 18:14:58 10° WSW 18:18:03 55° NNW 18:20:14 17° NE
STARLINK-1229 3.5 18:15:27 10° WSW 18:18:31 54° NNW 18:20:38 18° NE
STARLINK-1271 3.5 18:15:55 10° WSW 18:18:59 54° NNW 18:21:06 18° NE
STARLINK-1270 3.5 18:16:22 10° WSW 18:19:26 53° NNW 18:21:32 18° NE
STARLINK-1154 3.5 18:16:48 10° WSW 18:19:52 53° NNW 18:21:57 18° NE
STARLINK-1197 3.6 18:17:43 10° WSW 18:20:46 52° NNW 18:22:49 19° NE
STARLINK-1189 3.6 18:18:10 10° WSW 18:21:14 52° NNW 18:23:15 19° NE
IRIDIUM 114 4.5 18:16:12 10° N 18:21:17 51° E 18:25:04 18° SSE
STARLINK-1216 3.5 18:17:58 10° WSW 18:22:00 85° NNW 18:25:04 17° ENE
STARLINK-1187 3.8 18:19:03 10° W 18:22:06 48° NNW 18:24:10 18° NE
STARLINK-1188 3.6 18:19:05 10° WSW 18:22:08 51° NNW 18:24:07 19° NE
STARLINK-1100 3.8 18:18:12 10° WNW 18:22:12 61° SW 18:24:11 27° SE
STARLINK-1198 3.6 18:19:20 10° WSW 18:22:23 51° NNW 18:24:21 19° NE
STARLINK-1084 4.1 18:18:29 10° WNW 18:22:33 51° NNE 18:24:30 27° E
STARLINK-1235 3.9 18:19:47 10° W 18:22:49 44° NNW 18:24:55 17° NE
Abrixas rocket 4.0 18:21:30 10° SSW 18:22:34 16° S 18:22:34 16° S
STARLINK-1199 3.6 18:21:01 10° W 18:24:05 50° NNW 18:26:02 20° NE
FREGAT/IRIS 4.2 18:21:58 10° SSW 18:24:26 32° W 18:26:57 10° NNW
STARLINK-1191 3.7 18:21:29 10° W 18:24:33 50° NNW 18:26:29 20° NE
STARLINK-1210 3.7 18:21:56 10° W 18:24:59 50° NNW 18:26:54 20° NE
SPOT 3 Rocket 3.5 18:20:04 12° SSE 18:25:00 80° ENE 18:30:15 10° NNW
STARLINK-1221 3.7 18:22:24 10° W 18:25:28 49° NNW 18:27:22 20° NE
Meteor 1-21 Rocket 4.3 18:20:05 10° N 18:25:35 55° ENE 18:29:03 22° SE
STARLINK-1219 3.7 18:22:51 10° W 18:25:55 49° NNW 18:27:48 20° NE
Cosmos 1709 Rocket 4.1 18:19:50 10° NNW 18:26:04 76° W 18:32:10 10° S
STARLINK-1222 3.7 18:23:17 10° W 18:26:21 49° NNW 18:28:12 21° NE
STARLINK-67 4.3 18:24:06 10° W 18:26:24 28° NNW 18:27:36 19° NNE
STARLINK-1237 3.6 18:22:37 10° WSW 18:26:39 81° NNW 18:29:32 18° ENE
STARLINK-1083 3.9 18:22:49 10° WNW 18:26:47 57° SW 18:28:36 29° SSE
STARLINK-1211 3.7 18:23:45 10° W 18:26:48 48° NNW 18:28:38 21° NE
STARLINK-1214 3.7 18:24:13 10° W 18:27:16 48° NNW 18:29:05 21° NE
STARLINK-1098 4.0 18:23:27 10° WNW 18:27:32 54° NNE 18:29:16 30° E
STARLINK-1245 3.7 18:24:42 10° W 18:27:44 48° NNW 18:29:30 21° NE
STARLINK-1238 3.8 18:25:08 10° W 18:28:10 48° NNW 18:29:57 21° NE
Meteor 2-15 4.3 18:22:42 10° S 18:28:45 82° E 18:34:50 10° N
STARLINK-1205 3.8 18:26:04 10° W 18:29:06 47° NNW 18:30:48 22° NE
STARLINK-1204 3.8 18:26:30 10° W 18:29:32 47° NNW 18:31:12 22° NE
SL-14 R/B 4.2 18:26:30 10° NNW 18:30:26 50° W 18:34:20 10° S
IRIDIUM 103 4.3 18:25:18 10° N 18:30:30 62° E 18:34:14 19° SSE
Cosmos 1726 3.3 18:32:03 27° ENE 18:32:03 27° ENE 18:34:30 10° NNE
STARLINK-1202 3.6 18:27:14 10° WSW 18:31:16 76° NNW 18:33:58 20° ENE
STARLINK-1125 4.0 18:27:26 10° WNW 18:31:23 53° SW 18:33:02 31° SSE
STARLINK-1123 3.9 18:28:27 10° WNW 18:32:33 57° NNE 18:34:05 34° E
Cosmos 2228 4.5 18:34:16 21° ENE 18:34:16 21° ENE 18:36:35 10° NE
MOS 1 Rocket 3.7 18:28:52 10° NNE 18:33:59 53° E 18:39:14 10° S
STARLINK-1109 4.1 18:31:45 10° WNW 18:35:40 49° SW 18:37:10 32° SSE
STARLINK-1246 3.7 18:32:12 10° WSW 18:36:16 72° NNW 18:38:50 21° NE
Cosmos 1943 4.4 18:37:50 23° ENE 18:37:50 23° ENE 18:40:56 10° NE
STARLINK-1097 3.9 18:33:24 10° WNW 18:37:31 60° NNE 18:38:50 38° E
Cosmos 2074 Rocket 4.1 18:32:18 10° N 18:38:30 57° ENE 18:42:01 26° SSE
Cosmos 1943 Rocket 2.2 18:33:15 10° NNW 18:38:46 66° ENE 18:41:18 32° SE
Cosmos 292 Rocket 3.9 18:34:17 10° NNW 18:39:00 56° ENE 18:40:35 37° ESE
STARLINK-1091 4.2 18:36:26 10° WNW 18:40:19 45° SW 18:41:39 33° S
STARLINK-1099 3.8 18:38:24 10° WNW 18:42:31 63° NNE 18:43:38 44° E
NOSS 3-3 (A) 4.3 18:39:11 10° S 18:44:29 38° ESE 18:50:21 10° NE
NOSS 3-3 (C) 4.3 18:39:19 10° S 18:44:36 37° ESE 18:50:26 10° NE
STARLINK-1224 3.9 18:41:13 10° WSW 18:45:14 64° NNW 18:47:23 26° NE
STARLINK-1104 3.7 18:43:23 10° WNW 18:47:31 67° NNE 18:48:25 50° E
IRIDIUM 106 4.2 18:43:33 10° N 18:48:48 88° E 18:52:26 20° S
STARLINK-1225 4.0 18:45:57 10° WSW 18:49:57 61° NNW 18:51:55 28° NE
Meteor 2-10 4.1 18:47:40 26° SSE 18:50:35 57° E 18:56:00 10° NNE
STARLINK-1203 4.1 18:48:01 10° WSW 18:51:54 56° NNW 18:53:42 29° NE
SPOT 1/Viking Rocket 4.4 18:51:28 31° ENE 18:52:05 32° ENE 18:56:40 10° N
STARLINK-1144 3.6 18:48:21 10° WNW 18:52:29 70° NNE 18:53:11 56° E
SL-16 R/B 2.7 18:46:56 10° SW 18:52:32 61° WNW 18:58:10 10° NNE
Spot 2 Rocket 3.8 18:52:55 41° ESE 18:54:00 48° ENE 18:58:55 10° N
STARLINK-1230 4.0 18:50:37 10° WSW 18:54:36 58° NNW 18:56:22 30° NE
Cosmos 1953 2.1 18:53:54 40° S 18:55:16 86° E 18:59:16 10° N
Cosmos 1626 4.4 18:53:07 10° NW 18:56:10 24° W 18:59:11 10° SW
STARLINK-1103 3.5 18:53:19 10° WNW 18:57:28 75° NNE 18:57:58 64° E
Cosmos 1437 4.2 18:54:41 10° N 18:56:21 27° NNE 18:56:21 27° NNE
STARLINK-1234 4.4 18:55:20 10° WNW 18:58:02 29° NNW 18:58:25 28° N
Cosmos 2084 Rocket 3.4 18:53:34 10° NW 18:58:04 77° NE 18:58:46 60° ESE
STARLINK-1243 4.1 18:55:20 10° W 18:59:17 55° NNW 19:00:54 32° NE
Aureole 3 3.8 18:57:25 17° SSW 19:00:25 71° W 19:05:28 10° N
Cosmos 1602 Rocket 4.4 18:56:38 10° NNW 19:00:57 49° W 19:03:54 19° SSW
STARLINK-1101 3.5 18:58:19 10° WNW 19:02:28 79° NNE 19:02:46 73° ENE
STARLINK-1236 4.2 19:00:02 10° W 19:03:59 53° NNW 19:05:23 34° NE
IGS 5A 4.4 19:05:47 34° NE 19:05:47 34° NE 19:08:55 10° N
H-2A R/B 4.1 19:01:14 10° SSW 19:05:37 26° W 19:09:55 10° NW
DMSP B5D2-2 4.2 19:00:23 10° N 19:05:37 75° WNW 19:10:48 10° SSW
ATLAS 2AS CENTAUR R/B 3.5 19:00:05 10° NW 19:07:26 43° NE 19:10:15 31° E
STARLINK-1102 3.5 19:03:17 10° WNW 19:07:26 84° NNE 19:07:32 83° ENE
Terra 3.4 19:10:44 21° NE 19:10:44 21° NE 19:13:35 10° NNE
Aureole 2 Rocket 2.9 19:07:36 10° NNW 19:10:31 58° NNW 19:10:31 58° NNW
STARLINK-1111 3.5 19:08:15 10° WNW 19:12:19 85° NW 19:12:19 85° NW
USA 234 3.4 19:06:13 10° NE 19:12:46 75° NNW 19:19:17 10° WSW
STARLINK-1269 4.4 19:09:30 10° W 19:13:26 48° NNW 19:14:25 39° NNE
Cosmos 1603 3.6 19:12:01 37° S 19:14:09 63° ESE 19:19:42 10° NNE
Meteor 1-16 Rocket 3.9 19:12:23 42° S 19:14:16 78° E 19:19:44 10° NNE
Cosmos 2327 Rocket 4.4 19:10:25 10° N 19:16:43 77° E 19:18:40 47° SSE
Cosmos 1726 Rocket 4.3 19:18:06 40° NE 19:18:06 40° NE 19:21:07 10° NNE
STARLINK-1073 3.7 19:13:14 10° WNW 19:17:06 76° WNW 19:17:06 76° WNW
STARLINK-1200 4.4 19:14:14 10° W 19:18:09 46° NNW 19:18:56 40° NNE
Cosmos 1703 3.8 19:14:42 10° N 19:17:47 51° NNE 19:17:47 51° NNE
Cosmos 1825 Rocket 3.5 19:16:00 10° NNW 19:20:27 78° W 19:20:41 75° SW
MetOp-B 4.0 19:19:53 56° SSE 19:21:06 89° WSW 19:26:31 10° NNW
STARLINK-1121 3.8 19:18:14 10° WNW 19:21:53 66° W 19:21:53 66° W
STARLINK-1192 4.5 19:18:55 10° W 19:22:48 45° NNW 19:23:24 41° N
COSMOS 2455 4.1 19:21:49 10° NNW 19:26:54 27° NE 19:28:01 26° ENE
CZ-2C R/B 3.1 19:22:07 10° N 19:27:13 58° WNW 19:32:16 10° SSW
STARLINK-1106 4.1 19:23:12 10° WNW 19:26:39 58° W 19:26:39 58° W
Cosmos 2184 Rocket 4.3 19:22:56 10° NNW 19:29:12 66° W 19:32:14 31° SSW
Meteor 1-11 4.1 19:23:28 10° N 19:29:17 72° ENE 19:29:47 68° ESE
Cosmos 1992 Rocket 4.3 19:24:23 10° NNW 19:29:32 60° WSW 19:30:33 50° SSW
Cosmos 1758 Rocket 4.1 19:25:24 10° NNW 19:29:40 52° W 19:30:09 49° WSW
Cosmos 1295 Rocket 4.4 19:25:14 10° N 19:31:29 69° E 19:32:15 62° ESE
STARLINK-1112 4.3 19:28:12 10° WNW 19:31:27 51° W 19:31:27 51° W
Meteor 2-17 Rocket 4.3 19:29:37 10° N 19:35:48 90° ENE 19:36:57 62° S
Cosmos 1953 Rocket 3.8 19:31:35 10° NNW 19:35:31 67° NNW 19:35:31 67° NNW
Cosmos 2251 Rocket 3.9 19:31:16 10° SSW 19:36:34 64° WNW 19:41:56 10° NNE
SL-8 R/B 3.9 19:33:51 10° WNW 19:38:02 68° WNW 19:38:02 68° WNW
Cosmos 1656 Rocket 3.6 19:35:31 10° NNW 19:41:13 75° ENE 19:41:13 75° ENE
Cosmos 1606 Rocket 4.1 19:43:15 58° NW 19:43:15 58° NW 19:47:18 10° N
ERS-1 Rocket 3.3 19:48:48 60° NNE 19:48:48 60° NNE 19:53:02 10° N
Cosmos 2154 Rocket 4.2 19:43:47 10° NNW 19:50:08 71° W 19:51:33 54° SSW
USA 245 4.2 19:50:07 62° WSW 19:50:15 62° W 19:55:55 10° NNW
ISS -1.0 19:47:07 10° WNW 19:48:11 19° WNW 19:48:11 19° WNW
Resurs 01 Rocket 3.5 19:53:04 22° WSW 19:54:09 24° W 19:57:45 10° NW
SPOT 5 3.8 19:56:05 37° N 19:56:05 37° N 19:58:48 10° N
Cosmos 2369 Rocket 3.0 19:51:47 10° NW 19:57:08 43° WSW 19:57:50 41° SW
Cosmos 962 Rocket 4.4 20:00:04 10° N 20:06:15 83° W 20:06:15 83° W
SL-8 Rocket 4.1 20:06:18 10° N 20:11:56 69° NNE 20:11:56 69° NNE
Cosmos 2366 rocket 4.3 20:13:37 10° N 20:18:37 56° NNE 20:18:37 56° NNE
Cosmos 1943 3.8 20:19:28 52° W 20:20:02 55° WNW 20:25:38 10° NNE
Cosmos 1943 Rocket 4.0 20:17:59 10° NW 20:21:58 21° W 20:22:52 20° WSW
NOSS 3-4 (A) 3.7 20:19:04 10° NW 20:25:57 87° N 20:25:57 87° N
NOSS 3-4 (C) 3.7 20:19:10 10° NW 20:26:03 86° NNE 20:26:03 86° NNE
Terra 3.6 20:49:36 29° NW 20:49:36 29° NW 20:52:05 10° NNW
USA 234 4.3 20:49:16 10° NE 20:55:17 41° NNW 21:01:17 10° W
ATLAS 2AS CENTAUR R/B 3.2 20:51:20 10° NW 20:57:41 55° W 20:57:41 55° W
Cosmos 1980 Rocket 4.3 21:05:58 10° N 21:09:09 18° NNE 21:09:09 18° NNE
COSMOS 2455 4.0 21:07:25 10° NW 21:11:09 40° NW 21:11:09 40° NW
BREEZE M DEB (TANK) 4.5 21:44:06 77° NE 21:44:06 77° NE 22:05:01 10° ENE
CZ-4C R/B 3.7 22:00:12 10° NNW 22:06:33 42° NE 22:06:33 42° NE
Cosmos 2344 4.5 22:08:21 10° NW 22:17:37 67° NE 22:20:04 56° E
SL-16 R/B 4.3 22:26:10 10° N 22:29:36 22° NNE 22:29:36 22° NNE
USA 234 4.4 22:31:31 10° ENE 22:37:25 38° N 22:43:20 10° WNW
Cosmos 2322 Rocket 4.2 22:41:07 10° N 22:44:37 23° NNE 22:44:37 23° NNE
Cosmos 1980 Rocket 4.3 22:49:04 10° NNW 22:50:54 21° NNW 22:50:54 21° NNW
Cosmos 2082 Rocket 4.0 23:15:19 28° NNE 23:15:19 28° NNE 23:17:55 10° NNE
SL-16 R/B 3.6 23:21:37 40° NE 23:21:37 40° NE 23:26:16 10° N
ATLAS 5 CENTAUR R/B 4.4 23:39:11 15° NNW 23:39:11 15° NNW 23:42:03 10° NNE
Cosmos 1833 Rocket 4.4 23:45:10 26° NNW 23:45:10 26° NNW 23:48:20 10° NNE
USA 267 4.4 23:38:16 10° ENE 23:42:05 32° E 23:42:05 32° E
